FW0633 Weather Reports


Display with metric or nautical units.
time (UTC)temp
F
wind
direction
speed
MPH
gust
MPH
rain 1hr
in
rain 24hr
in
rain mn
in
humidity
%
barometer
mb
20260906150025 75 275 0.0 1.0 0.00 0.00 0.00 49 1039.3
20260906144504 72 0 0.0 0.0 0.00 0.00 0.00 56 1039.4
20260906143004 68 0 0.0 0.0 0.00 0.00 0.00 64 1039.3
20260906141505 66 0 0.0 0.0 0.00 0.00 0.00 66 1039.2
20260906140004 66 0 0.0 0.0 0.00 0.00 0.00 66 1038.9
20260906134504 64 0 0.0 0.0 0.00 0.00 0.00 68 1038.8
20260906133025 64 0 0.0 0.0 0.00 0.00 0.00 66 1038.7
20260906131504 64 0 0.0 0.0 0.00 0.00 0.00 66 1038.4
20260906130025 65 0 0.0 0.0 0.00 0.00 0.00 65 1038.2
20260906124504 65 0 0.0 0.0 0.00 0.00 0.00 63 1038.0
20260906123004 66 0 0.0 0.0 0.00 0.00 0.00 62 1038.1
20260906121504 66 273 0.0 1.0 0.00 0.00 0.00 60 1038.1
20260906120005 66 272 0.0 1.0 0.00 0.00 0.00 61 1038.2
20260906114504 66 272 0.0 1.0 0.00 0.00 0.00 59 1038.2
20260906113004 65 0 0.0 0.0 0.00 0.00 0.00 60 1038.0
20260906111504 66 0 0.0 0.0 0.00 0.00 0.00 59 1037.9
20260906110004 66 269 0.0 1.0 0.00 0.00 0.00 58 1038.0
20260906104504 67 274 0.0 2.0 0.00 0.00 0.00 58 1038.0
20260906103004 66 0 0.0 0.0 0.00 0.00 0.00 58 1038.0
20260906101504 67 0 0.0 0.0 0.00 0.00 0.00 59 1038.0
20260906100004 66 0 0.0 0.0 0.00 0.00 0.00 61 1038.0
20260906094504 66 0 0.0 0.0 0.00 0.00 0.00 62 1038.0
20260906093025 66 0 0.0 0.0 0.00 0.00 0.00 61 1038.1
20260906091504 66 0 0.0 0.0 0.00 0.00 0.00 62 1038.0
20260906090004 66 0 0.0 0.0 0.00 0.00 0.00 63 1038.2
20260906084525 67 0 0.0 0.0 0.00 0.00 0.00 61 1038.2
20260906083025 68 0 0.0 0.0 0.00 0.00 0.00 59 1038.4
20260906081504 68 0 0.0 0.0 0.00 0.00 0.00 59 1038.4
20260906080004 69 0 0.0 0.0 0.00 0.00 0.00 57 1038.4
20260906074525 69 0 0.0 0.0 0.00 0.00 0.00 58 1038.5
20260906073026 69 0 0.0 0.0 0.00 0.00 0.00 58 1038.5
20260906071504 69 0 0.0 0.0 0.00 0.00 0.00 57 1038.6
20260906070003 69 258 0.0 1.0 0.00 0.00 0.00 58 1038.7
20260906064504 69 270 0.0 3.0 0.00 0.00 0.00 57 1038.9
20260906063004 70 277 0.0 1.0 0.00 0.00 0.00 59 1038.7
20260906061504 70 277 0.0 1.0 0.00 0.00 0.00 58 1038.7
20260906060003 70 280 0.0 1.0 0.00 0.00 0.00 58 1039.0
20260906054504 71 0 0.0 0.0 0.00 0.00 0.00 58 1039.0
20260906053024 71 231 0.0 1.0 0.00 0.00 0.00 57 1039.0
20260906051503 71 230 0.0 2.0 0.00 0.00 0.00 57 1039.1
20260906050003 72 0 0.0 0.0 0.00 0.00 0.00 53 1039.0
20260906044503 72 0 0.0 0.0 0.00 0.00 0.00 53 1039.0
20260906043004 72 282 0.0 1.0 0.00 0.00 0.00 55 1039.0
20260906041506 72 0 0.0 0.0 0.00 0.00 0.00 55 1038.7
20260906040007 73 282 0.0 2.0 0.00 0.00 0.00 54 1038.9
20260906034527 73 281 0.0 1.0 0.00 0.00 0.00 54 1038.8
20260906033006 74 257 0.0 1.0 0.00 0.00 0.00 53 1038.6
20260906031505 74 224 0.0 1.0 0.00 0.00 0.00 55 1038.5
20260906030006 74 220 0.0 1.0 0.00 0.00 0.00 54 1038.4
20260906024505 75 224 0.0 1.0 0.00 0.00 0.00 53 1038.3
20260906023027 75 270 0.0 1.0 0.00 0.00 0.00 49 1038.4
20260906021527 76 211 0.0 1.0 0.00 0.00 0.00 49 1038.1
20260906020006 76 235 0.0 1.0 0.00 0.00 0.00 49 1038.2
20260906014505 77 259 0.0 3.0 0.00 0.00 0.00 48 1038.4
20260906013006 77 261 0.0 1.0 0.00 0.00 0.00 47 1038.3
20260906011505 78 270 1.0 4.0 0.00 0.00 0.00 47 1038.3
20260906010005 79 231 1.0 3.0 0.00 0.00 0.00 46 1038.4
20260906004506 80 227 1.0 6.0 0.00 0.00 0.00 47 1038.5
20260906003026 79 214 3.0 8.0 0.00 0.00 0.00 49 1038.6
20260906001506 81 212 3.0 8.0 0.00 0.00 0.00 47 1038.5
20260906000005 82 215 3.0 9.0 0.00 0.00 0.00 45 1038.5
20260905234505 81 223 2.0 5.0 0.00 0.00 0.00 45 1038.4
20260905233005 80 226 1.0 5.0 0.00 0.00 0.00 45 1038.5
20260905231505 80 190 2.0 5.0 0.00 0.00 0.00 49 1038.5
20260905230005 79 198 4.0 9.0 0.00 0.00 0.00 50 1038.6
20260905224505 79 200 3.0 7.0 0.00 0.00 0.00 51 1038.7
20260905223005 79 220 4.0 11.0 0.00 0.00 0.00 51 1038.8
20260905221505 81 196 5.0 15.0 0.00 0.00 0.00 47 1038.8
20260905220005 82 223 4.0 10.0 0.00 0.00 0.00 43 1038.7
20260905214505 83 184 4.0 10.0 0.00 0.00 0.00 42 1038.7
20260905213005 85 217 5.0 13.0 0.00 0.00 0.00 40 1038.8
20260905211505 86 238 4.0 10.0 0.00 0.00 0.00 38 1038.9
20260905210005 85 203 2.0 6.0 0.00 0.00 0.00 39 1038.9
20260905204505 86 210 4.0 10.0 0.00 0.00 0.00 37 1039.0
20260905203006 88 210 3.0 8.0 0.00 0.00 0.00 35 1039.0
20260905201506 88 224 3.0 11.0 0.00 0.00 0.00 35 1039.0
20260905200005 88 229 4.0 11.0 0.00 0.00 0.00 33 1039.3
20260905194505 87 200 4.0 18.0 0.00 0.00 0.00 33 1039.4
20260905193005 85 211 3.0 8.0 0.00 0.00 0.00 33 1039.7
20260905191505 84 220 2.0 7.0 0.00 0.00 0.00 33 1039.9
20260905190005 84 211 3.0 9.0 0.00 0.00 0.00 34 1040.1
20260905184505 84 252 2.0 5.0 0.00 0.00 0.00 33 1040.2
20260905183005 85 227 3.0 8.0 0.00 0.00 0.00 33 1040.4
20260905181504 84 228 2.0 9.0 0.00 0.00 0.00 32 1040.2
20260905180005 85 145 3.0 8.0 0.00 0.00 0.00 31 1040.2
20260905174504 84 147 5.0 12.0 0.00 0.00 0.00 32 1040.2
20260905173025 84 153 3.0 9.0 0.00 0.00 0.00 32 1040.2
20260905171506 84 211 2.0 8.0 0.00 0.00 0.00 30 1040.1
20260905170005 83 190 3.0 8.0 0.00 0.00 0.00 32 1040.2
20260905164505 83 141 3.0 10.0 0.00 0.00 0.00 35 1040.1
20260905163025 81 155 3.0 6.0 0.00 0.00 0.00 35 1040.1
20260905161505 81 143 2.0 10.0 0.00 0.00 0.00 37 1039.8
20260905160006 81 165 2.0 7.0 0.00 0.00 0.00 37 1039.9
20260905154504 80 190 2.0 5.0 0.00 0.00 0.00 40 1039.8
20260905153005 77 0 0.0 0.0 0.00 0.00 0.00 44 1039.9
20260905151504 76 0 0.0 0.0 0.00 0.00 0.00 47 1039.8